SITRO-AIS 27

Last updated on Sun Dec 14 2025 00:03:50 GMT+0000 (Coordinated Universal Time)

1 59068U 24039T 25347.34023394 .00009262 00000+0 74987-3 0 9991 2 59068 95.3949 107.6205 0147566 256.3615 102.1141 14.91631989 97015
UTC large
Height (km)
Speed (km/s)
/
Latitude / Longitude
Inclination (degrees)
Orbital Period (minutes)
Azimuth
Elevation
Range (km)
Doppler Factor

Next 0 passes for location: London (51.5072 / 0.1276)

Sorry there are no passes over London.